North Myrtle Beach, SC

10:45 AM EST on December 09, 2019 (GMT -0500)
Grand Strand

Weather History for KCRE - October, 2019

Change the Weather History Date:

Saturday, October 5, 2019

  Actual Average Record
Temperature  
Mean Temperature 72 °F 69 °F  
Max Temperature 77 °F 78 °F 93 °F (1951)
Min Temperature 67 °F 60 °F 44 °F (1968)
Degree Days  
Heating Degree Days 0 1  
Month to date heating degree days 0 5  
Since 1 July heating degree days 0 9  
Cooling Degree Days 7 5  
Month to date cooling degree days 67 28  
Year to date cooling degree days 2250 1812  
Growing Degree Days 22 (Base 50)    
Moisture  
Dew Point 61 °F    
Average Humidity 69    
Maximum Humidity 81    
Minimum Humidity 57    
Precipitation  
Precipitation 0.00 in 0.14 in 3.95 in (1964)
Month to date precipitation T 0.74  
Year to date precipitation 42.57 42.37  
Sea Level Pressure  
Sea Level Pressure 30.17 in    
Wind  
Wind Speed 12 mph (NE)    
Max Wind Speed 22 mph    
Max Gust Speed 28 mph    
Visibility 10 miles    
Events      
T = Trace of Precipitation, MM = Missing Value Source: NWS Daily Summary

Daily Weather History Graph

Daily Weather History Graph

Search for Another Location

Airport or City:

Astronomy

Oct. 05, 2019 Rise Set
Actual Time 7:12 AM EDT 6:54 PM EDT
Civil Twilight 6:47 AM EDT 7:19 PM EDT
Nautical Twilight 6:18 AM EDT 7:47 PM EDT
Astronomical Twilight 5:49 AM EDT 8:16 PM EDT
Moon 2:20 PM EDT (10/5) No Moon Set
Length of Visible Light 12h 31m
Length of Day
11h 42m
Waxing Crescent, 50% of the Moon is Illuminated
Oct 5
Waxing Crescent
Oct 5
First Quarter
Oct 13
Full
Oct 21
Last Quarter
Oct 27
New

Hourly Weather History & Observations

Time (EDT) Temp. Dew Point Humidity Pressure Visibility Wind Dir Wind Speed Gust Speed Precip Events Conditions
12:38 AM 77.0 °F 68.0 °F 74% 30.09 in 10.0 mi ENE 11.5 mph - N/A   Overcast
12:53 AM 77.0 °F 66.9 °F 71% 30.09 in 10.0 mi ENE 10.4 mph 20.7 mph N/A   Overcast
1:53 AM 75.9 °F 66.0 °F 71% 30.10 in 10.0 mi ENE 13.8 mph - N/A   Overcast
2:53 AM 75.0 °F 64.9 °F 71% 30.10 in 10.0 mi ENE 12.7 mph - N/A   Overcast
3:53 AM 73.9 °F 63.0 °F 68% 30.11 in 10.0 mi NE 12.7 mph - N/A   Overcast
4:53 AM 73.0 °F 62.1 °F 68% 30.11 in 10.0 mi NE 15.0 mph - N/A   Mostly Cloudy
5:53 AM 72.0 °F 62.1 °F 71% 30.13 in 10.0 mi NE 12.7 mph - N/A   Overcast
6:53 AM 71.1 °F 61.0 °F 70% 30.15 in 10.0 mi NNE 10.4 mph - N/A   Overcast
7:53 AM 71.1 °F 61.0 °F 70% 30.17 in 10.0 mi NNE 13.8 mph - N/A   Overcast
8:53 AM 70.0 °F 61.0 °F 73% 30.19 in 10.0 mi NNE 12.7 mph 21.9 mph N/A   Mostly Cloudy
9:53 AM 71.1 °F 60.1 °F 68% 30.21 in 10.0 mi NE 16.1 mph 23.0 mph N/A   Mostly Cloudy
10:53 AM 73.0 °F 59.0 °F 61% 30.22 in 10.0 mi NE 15.0 mph - N/A   Overcast
11:53 AM 73.0 °F 59.0 °F 61% 30.22 in 10.0 mi ENE 16.1 mph - N/A   Overcast
12:53 PM 72.0 °F 57.9 °F 61% 30.22 in 10.0 mi NE 16.1 mph - N/A   Overcast
1:53 PM 73.0 °F 57.9 °F 59% 30.20 in 10.0 mi NE 12.7 mph - N/A   Overcast
2:53 PM 72.0 °F 57.9 °F 61% 30.19 in 10.0 mi NNE 13.8 mph - N/A   Overcast
3:53 PM 73.9 °F 57.0 °F 55% 30.19 in 10.0 mi NNE 10.4 mph - N/A   Overcast
4:53 PM 73.9 °F 57.9 °F 57% 30.18 in 10.0 mi NE 15.0 mph - N/A   Overcast
5:53 PM 70.0 °F 59.0 °F 68% 30.19 in 10.0 mi NNE 9.2 mph - N/A   Overcast
6:53 PM 69.1 °F 60.1 °F 73% 30.19 in 10.0 mi NNE 9.2 mph - N/A   Overcast
7:53 PM 68.0 °F 59.0 °F 73% 30.19 in 10.0 mi NNE 11.5 mph - N/A   Overcast
8:53 PM 68.0 °F 59.0 °F 73% 30.20 in 10.0 mi NNE 11.5 mph - N/A   Overcast
9:24 PM 68.0 °F 59.0 °F 73% 30.21 in 10.0 mi NNE 8.1 mph - N/A   Overcast
9:42 PM 68.0 °F 59.0 °F 73% 30.21 in 10.0 mi North 9.2 mph 18.4 mph N/A   Overcast
9:53 PM 68.0 °F 59.0 °F 73% 30.22 in 10.0 mi NNE 10.4 mph - N/A   Overcast
10:53 PM 68.0 °F 60.1 °F 76% 30.22 in 10.0 mi North 8.1 mph - N/A   Overcast
11:53 PM 66.9 °F 60.1 °F 79% 30.21 in 10.0 mi NNE 8.1 mph - N/A   Overcast